Regional Weather Roundup
Issued by NWS

Home | Current Version | Previous Version | Text Only | Print | Product List | Glossary On
Versions: 1 2 3 4 5 6 7 8 9 10 11 12 13 14 15 16 17 18 19 20 21 22 23 24 25 26 27 28 29 30 31 32 33 34 35 36 37 38 39 40 41 42 43 44 45 46 47 48 49 50
000
ASUS43 KMPX 302210
RWRMN
WEATHER ROUNDUP FOR MINNESOTA
NATIONAL WEATHER SERVICE TWIN CITIES/CHANHASSEN MN
500 PM CDT THU OCT 30 2014


NOTE: "FAIR" INDICATES FEW OR NO CLOUDS BELOW 12,000 FEET WITH NO
SIGNIFICANT WEATHER AND/OR OBSTRUCTIONS TO VISIBILITY. N/A MEANS
CURRENT SKY AND/OR WEATHER CONDITIONS ARE NOT AVAILABLE.

MNZ060>063-068>070-302300-
   Twin Cities Metro

CITY           SKY/WX    TMP DP  RH WIND       PRES   REMARKS
TWIN CITIES    CLOUDY    47  36  65 NW13      30.14R
ST PAUL        CLOUDY    47  36  65 N15       30.15R
CRYSTAL        CLOUDY    46  37  71 N15       30.14R
BLAINE         CLOUDY    46  37  71 NW15G21     N/A
LAKEVILLE      CLOUDY    46  36  66 NW12      30.13R
EDEN PRAIRIE   CLOUDY    47  37  68 NW10G20   30.13R
SOUTH ST PAUL  CLOUDY    47  35  61 N9        30.13R
LAKE ELMO      CLOUDY    45  36  70 N9        30.14R
$$
MNZ001>005-007-008-013>017-022>024-027-028-302300-
   Northwest Minnesota

CITY           SKY/WX    TMP DP  RH WIND       PRES   REMARKS
BEMIDJI        PTCLDY    34  17  48 N13G25    30.27R WCI  25
HALLOCK        PTCLDY    37  21  52 N18       30.41R
ROSEAU         PTCLDY    34  23  64 N18       30.36R WCI  23
WARROAD        CLEAR     34  18  51 NW16G25   30.35R WCI  23
THIEF RVR FALL CLOUDY    36  19  51 NW23      30.36R
CROOKSTON      MOCLDY    37  21  52 N24G32    30.39R
FOSSTON        CLOUDY    34  21  60 N24G32    30.34R WCI  21
DETROIT LAKES  CLOUDY    34  27  75 N16G29    30.32R WCI  23
MOORHEAD       CLOUDY    36  28  75 N22G29    30.38R
PARK RAPIDS    CLOUDY    35  25  66 N22G30    30.26R WCI  23
MAHNOMEN       CLOUDY    33  24  68 N17G24    30.34R WCI  22
$$
MNZ006-009>011-018-025>026-302300-
   North Central Minnesota

CITY           SKY/WX    TMP DP  RH WIND       PRES   REMARKS
BAUDETTE       PTCLDY    33  15  47 N25G33    30.30R WCI  20
FLAG ISLAND    CLEAR     34  19  55 N29G38    30.34R WCI  20
INTL FALLS     LGT SNOW  31  21  66 NW25G38   30.23R WCI  17
WASKISH        MOCLDY    36  19  51 NW13G21   30.28R
BIG FORK       MOCLDY    36  23  60 NW14G24   30.21R
LONGVILLE      CLOUDY    36  30  80 NW15G24   30.22R
GRAND RAPIDS   CLOUDY    36  30  80 NW22G28   30.17R
CRANE LAKE     LGT SNOW  30  28  93 N12G17    30.19R WCI  21
ORR            LGT SNOW  30  28  93 NW7G18    30.15R WCI  23
COOK           LGT SNOW  32  28  86 NW13G23   30.15R WCI  22
WALKER         MOCLDY    33  23  66 NW12G22   30.25R WCI  25
$$
MNZ012-019>021-037-302300-
   Northeast Minnesota

CITY           SKY/WX    TMP DP  RH WIND       PRES   REMARKS
DULUTH         MOCLDY    39  32  76 NW10G20   30.10R
ELY            SNOW      32  30  93 NW14G24   30.09R VSB 1/2 WCI  22
HIBBING        CLOUDY    37  29  72 NW23G35   30.15R
EVELETH        LGT SNOW  34  32  93 NW17G29   30.13R VSB 1   WCI  23
DULUTH HARBOR  PTCLDY    43  36  75 NW20G28   30.13R
TWO HARBORS    LGT RAIN  39  34  81 NW8G23    30.08R
SILVER BAY     PTCLDY    39  34  81 NW6G16    30.06R
GRAND MARAIS     N/A     40  29  64 N10G24    30.03R
G MARAIS ARPRT PTCLDY    32  27  80 NW7       30.01S WCI  26
$$
MNZ029>031-032-039>041-046>048-054>057-064-302300-
   West Central Minnesota

CITY           SKY/WX    TMP DP  RH WIND       PRES   REMARKS
FERGUS FALLS   CLOUDY    36  27  69 N21G38    30.34R
WHEATON        CLOUDY    36  28  75 NW20G36   30.36R
MORRIS         CLOUDY    37  32  81 N22G33    30.28R
ALEXANDRIA     CLOUDY    38  29  70 N24G30    30.26R
ELBOW LAKE     CLOUDY    35  29  79 NW22G28   30.30R WCI  24
WADENA         CLOUDY    36  28  75 NW16G25   30.26R
GLENWOOD       CLOUDY    39  30  70 NW18G25   30.24R
APPLETON       CLOUDY    41  32  70 N26       30.28R
BENSON         CLOUDY    41  30  65 N18G26    30.26R
ORTONVILLE     CLOUDY    37  30  75 N21G35    30.31R
MADISON        CLOUDY    43  34  70 N22       30.29R
WILLMAR        CLOUDY    45  32  61 N20G28    30.23R
$$
MNZ033>034-036-042>043-049>051-058-059-302300-
   Central Minnesota

CITY           SKY/WX    TMP DP  RH WIND       PRES   REMARKS
ST CLOUD       CLOUDY    45  32  60 NW16G22   30.19R
SAUK CENTRE    CLOUDY    39  30  68 NW21G28   30.23R
PAYNESVILLE    CLOUDY    39  31  74 W18G24    30.22R
AITKIN         CLOUDY    41  28  60 NW7G17    30.17R
PINE RIVER     MIX PCPN  37  28  70 NW14G26   30.25R
BRAINERD       CLOUDY    38  27  64 NW18G29   30.22R
STAPLES        CLOUDY    37  28  70 NW14      30.24R
LONG PRAIRIE   CLOUDY    37  30  75 NW15G22   30.23R
LITTLE FALLS   CLOUDY    39  28  65 NW9G20    30.21R
LITCHFIELD     CLOUDY    45  36  70 N17       30.20R
BUFFALO        CLOUDY    44  34  69 NW10G16   30.19R
MAPLE LAKE     CLOUDY    44  37  77 NW13      30.19R
$$
MNZ037-044-045-052-053-302300-
   East Central Minnesota

CITY           SKY/WX    TMP DP  RH WIND       PRES   REMARKS
PRINCETON      CLOUDY    45  32  61 NW20      30.18R
MORA           CLOUDY    39  30  70 N13G24    30.18R
CAMBRIDGE      CLOUDY    45  32  61 N10G17    30.15R
RUSH CITY      CLOUDY    42  32  67 NW7       30.16R
MOOSE LAKE     PTCLDY    39  30  70 NW10G24   30.13R
HINCKLEY       CLOUDY    43  32  65 NW13      30.15R
CLOQUET        MOCLDY    37  30  75 NW13G24   30.12R
MCGREGOR       CLOUDY    36  32  87 NW12      30.17R
$$
MNZ071>073-080-081-089-090-097-098-302300-
   Southwest Minnesota

CITY           SKY/WX    TMP DP  RH WIND       PRES   REMARKS
MONTEVIDEO     CLOUDY    41  34  75 N21       30.27R
GRANITE FALLS  CLOUDY    42  35  73 NW21G29   30.25R
CANBY          CLOUDY    40  33  77 N20G26    30.29R
MARSHALL       CLOUDY    43  32  65 N29G35    30.23R
REDWOOD FALLS  CLOUDY    46  37  71 N15G23    30.21R
OLIVIA         PTSUNNY   45  37  76 N21       30.19R
PIPESTONE      CLOUDY    43  37  81 N18G26    30.23R
WINDOM         CLOUDY    46  39  76 NW17G26   30.19R
WORTHINGTON    CLOUDY    45  37  76 N24       30.20R
JACKSON        CLOUDY    48  37  66 N18G28    30.17R
TRACY          CLOUDY    44  39  82 N20G29    30.23R
SLAYTON        CLOUDY    42  39  88 N22G29    30.21R
$$
MNZ065>067-074>077-082>085-091>093-302300-
   South Central Minnesota

CITY           SKY/WX    TMP DP  RH WIND       PRES   REMARKS
MANKATO        CLOUDY    48  34  57 N14G20    30.14R
NEW ULM        SUNNY     46  37  71 N13G23    30.17R
ST JAMES       CLOUDY    48  37  66 NW17      30.18R
FAIRMONT       CLOUDY    50  34  53 N22       30.15R
GLENCOE        PTSUNNY   46  38  74 NW13G20   30.16R
FARIBAULT      MOCLDY    48  37  66 N8        30.13R
OWATONNA       PTCLDY    48  36  61 N9        30.12R
WASECA         CLOUDY    48  32  53 N8        30.14R
ALBERT LEA     CLOUDY    48  36  61 N7        30.11R
$$
MNZ078>079-086>088-094>096-302300-
   Southeast Minnesota

CITY           SKY/WX    TMP DP  RH WIND       PRES   REMARKS
ROCHESTER      CLOUDY    45  38  76 N6        30.11R
RED WING       CLOUDY    48  34  57 NW6       30.11R
STANTON        CLOUDY    49  37  62 NW9       30.11R
DODGE CENTER   CLOUDY    46  37  71 N8        30.11R
WINONA         CLOUDY    48  39  71 N6        30.09R
AUSTIN         CLOUDY    46  36  66 N6        30.10R
PRESTON        CLOUDY    45  37  75 NW3       30.09R
$$
ABBREVIATIONS USED IN REMARKS
   TC - TEMPERATURES IN CELSIUS
  WCI - WIND CHILL INDEX
   HX - HEAT INDEX
  VSB - VISIBILITY
$$



USA.gov is the U.S. government's official web portal to all federal, state and local government web resources and services.